Atka, AK

3:11 PM HDT on October 19, 2017 (GMT -0900)
Atka

Weather History for PAAK - March, 2012

Change the Weather History Date:

Friday, March 9, 2012

  Actual Average (PADK) Record (PADK)
Temperature  
Mean Temperature 30 °F -  
Max Temperature 33 °F 36 °F 44 °F (1967)
Min Temperature 28 °F 29 °F 20 °F (1978)
Degree Days  
Heating Degree Days 34    
Moisture  
Dew Point 20 °F    
Average Humidity 67    
Maximum Humidity 86    
Minimum Humidity 60    
Precipitation  
Precipitation 0.00 in - - ()
Sea Level Pressure  
Sea Level Pressure 30.21 in    
Wind  
Wind Speed 22 mph (NW)    
Max Wind Speed 32 mph    
Max Gust Speed 41 mph    
Visibility 9 miles    
Events      
Averages and records for this station are not official NWS values.
T = Trace of Precipitation, MM = Missing Value Source: NWS Daily Summary

Daily Weather History Graph

Daily Weather History Graph

Search for Another Location

Airport or City:

Trip Planner

Search our weather history database for the weather conditions in past years. The results will help you decide how hot, cold, wet, or windy it might be!

Date:

Astronomy

Mar. 09, 2012 Rise Set
Actual Time 8:03 AM HST 7:32 PM HST
Civil Twilight 7:29 AM HST 8:05 PM HST
Nautical Twilight 6:50 AM HST 8:45 PM HST
Astronomical Twilight 6:09 AM HST 9:25 PM HST
Moon 10:15 PM HST (3/9) 8:09 AM HST (3/9)
Length of Visible Light 12h 36m
Length of Day
11h 29m
Full, 97% of the Moon is Illuminated
Mar 9
Full
Mar 14
Last Quarter
Mar 22
New
Mar 30
First Quarter
Apr 6
Full

Hourly Weather History & Observations

Time (HST) Temp. Windchill Dew Point Humidity Pressure Visibility Wind Dir Wind Speed Gust Speed Precip Events Conditions
12:16 AM 33.8 °F 19.6 °F 21.2 °F 60% 29.99 in 10.0 mi WNW 32.2 mph 41.4 mph N/A   Unknown
12:36 AM 32.0 °F 17.4 °F 23.0 °F 69% 30.00 in 10.0 mi WNW 31.1 mph 40.3 mph N/A   Unknown
12:56 AM 32.0 °F 18.6 °F 19.4 °F 60% 30.02 in 10.0 mi WNW 25.3 mph 41.4 mph N/A   Unknown
1:16 AM 32.0 °F 17.2 °F 21.2 °F 64% 30.03 in 10.0 mi WNW 32.2 mph 38.0 mph N/A   Unknown
1:36 AM 32.0 °F 17.4 °F 19.4 °F 60% 30.04 in 10.0 mi WNW 31.1 mph 39.1 mph N/A   Unknown
1:56 AM 32.0 °F 18.6 °F 19.4 °F 60% 30.05 in 10.0 mi WNW 25.3 mph 40.3 mph N/A   Unknown
2:16 AM 30.2 °F 15.7 °F 19.4 °F 64% 30.07 in 10.0 mi WNW 27.6 mph 34.5 mph N/A   Unknown
2:36 AM 30.2 °F 15.4 °F 17.6 °F 60% 30.08 in 10.0 mi NW 28.8 mph 38.0 mph N/A   Unknown
2:56 AM 30.2 °F 15.7 °F 17.6 °F 60% 30.09 in 10.0 mi WNW 27.6 mph 36.8 mph N/A   Unknown
3:16 AM 30.2 °F 15.4 °F 17.6 °F 60% 30.09 in 10.0 mi NW 28.8 mph 40.3 mph N/A   Unknown
3:36 AM 30.2 °F 15.7 °F 17.6 °F 60% 30.10 in 10.0 mi WNW 27.6 mph 34.5 mph N/A   Unknown
3:56 AM 30.2 °F 14.7 °F 17.6 °F 60% 30.11 in 10.0 mi NW 32.2 mph 38.0 mph N/A   Unknown
4:16 AM 30.2 °F 15.7 °F 19.4 °F 64% 30.12 in 10.0 mi WNW 27.6 mph 32.2 mph N/A   Unknown
4:36 AM 28.4 °F 12.7 °F 21.2 °F 74% 30.12 in 8.0 mi NW 29.9 mph 34.5 mph N/A   Unknown
4:56 AM 28.4 °F 13.3 °F 19.4 °F 69% 30.13 in 8.0 mi NW 27.6 mph 36.8 mph N/A   Unknown
5:16 AM 28.4 °F 13.5 °F 19.4 °F 69% 30.14 in 9.0 mi NW 26.5 mph 35.7 mph N/A   Unknown
5:36 AM 28.4 °F 13.5 °F 19.4 °F 69% 30.16 in 8.0 mi WNW 26.5 mph 34.5 mph N/A   Unknown
5:56 AM 28.4 °F 13.3 °F 19.4 °F 69% 30.17 in 10.0 mi WNW 27.6 mph 32.2 mph N/A   Unknown
6:16 AM 28.4 °F 13.8 °F 21.2 °F 74% 30.18 in 8.0 mi NW 25.3 mph 35.7 mph N/A   Unknown
6:36 AM 28.4 °F 14.4 °F 19.4 °F 69% 30.19 in 10.0 mi NW 23.0 mph 29.9 mph N/A   Unknown
6:56 AM 28.4 °F 14.1 °F 19.4 °F 69% 30.20 in 8.0 mi NW 24.2 mph 32.2 mph N/A   Unknown
7:16 AM 28.4 °F 15.1 °F 19.4 °F 69% 30.22 in 10.0 mi WNW 20.7 mph 28.8 mph N/A   Unknown
7:36 AM 28.4 °F 13.5 °F 17.6 °F 64% 30.22 in 6.0 mi NW 26.5 mph 34.5 mph N/A   Unknown
7:56 AM 28.4 °F 15.4 °F 17.6 °F 64% 30.23 in 10.0 mi WNW 19.6 mph 23.0 mph N/A   Unknown
8:16 AM 28.4 °F 15.8 °F 17.6 °F 64% 30.24 in 10.0 mi NW 18.4 mph 27.6 mph N/A   Unknown
8:36 AM 28.4 °F 15.8 °F 17.6 °F 64% 30.24 in 10.0 mi NW 18.4 mph 26.5 mph N/A   Unknown
8:56 AM 28.4 °F 15.1 °F 19.4 °F 69% 30.25 in 10.0 mi WNW 20.7 mph 28.8 mph N/A   Unknown
9:16 AM 28.4 °F 16.2 °F 19.4 °F 69% 30.26 in 8.0 mi NW 17.3 mph - N/A   Unknown
9:36 AM 28.4 °F 17.5 °F 17.6 °F 64% 30.26 in 10.0 mi NNW 13.8 mph 20.7 mph N/A   Unknown
9:56 AM 28.4 °F 18.5 °F 19.4 °F 69% 30.27 in 8.0 mi NNW 11.5 mph - N/A   Unknown
10:16 AM 28.4 °F 22.2 °F 19.4 °F 69% 30.28 in 10.0 mi NNW 5.8 mph - N/A   Unknown
10:36 AM 30.2 °F 20.8 °F 17.6 °F 60% 30.29 in 10.0 mi NW 11.5 mph - N/A   Unknown
10:56 AM 30.2 °F 23.4 °F 19.4 °F 64% 30.29 in 10.0 mi NNW 6.9 mph - N/A   Unknown
11:16 AM 30.2 °F 21.3 °F 21.2 °F 69% 30.30 in 10.0 mi NW 10.4 mph 16.1 mph N/A   Unknown
11:36 AM 28.4 °F 19.1 °F 21.2 °F 74% 30.30 in 5.0 mi West 10.4 mph - N/A   Unknown
11:56 AM 30.2 °F 21.3 °F 21.2 °F 69% 30.31 in 10.0 mi West 10.4 mph - N/A   Unknown
12:16 PM 30.2 °F 21.3 °F 17.6 °F 60% 30.31 in 10.0 mi WNW 10.4 mph - N/A   Unknown
12:36 PM 30.2 °F 20.8 °F 17.6 °F 60% 30.30 in 10.0 mi WNW 11.5 mph - N/A   Unknown
12:56 PM 30.2 °F 20.8 °F 19.4 °F 64% 30.30 in 10.0 mi NW 11.5 mph - N/A   Unknown
1:16 PM 30.2 °F 23.4 °F 21.2 °F 69% 30.32 in 10.0 mi NW 6.9 mph - N/A   Unknown
1:36 PM 30.2 °F 22.6 °F 21.2 °F 69% 30.32 in 10.0 mi NW 8.1 mph - N/A   Unknown
1:56 PM 30.2 °F 22.6 °F 21.2 °F 69% 30.32 in 10.0 mi North 8.1 mph - N/A   Unknown
2:16 PM 28.4 °F 21.2 °F 21.2 °F 74% 30.32 in 2.5 mi NNW 6.9 mph - N/A   Unknown
2:36 PM 28.4 °F - 23.0 °F 80% 30.32 in 1.5 mi Calm Calm - N/A   Unknown
2:56 PM 28.4 °F - 24.8 °F 86% 30.31 in 10.0 mi Calm Calm - N/A   Unknown
3:16 PM 30.2 °F - 21.2 °F 69% 30.31 in 10.0 mi Calm Calm - N/A   Unknown
3:36 PM 30.2 °F 24.3 °F 21.2 °F 69% 30.31 in 10.0 mi WNW 5.8 mph - N/A   Unknown
3:56 PM 30.2 °F 24.3 °F 21.2 °F 69% 30.31 in 10.0 mi West 5.8 mph - N/A   Unknown
4:16 PM 30.2 °F 23.4 °F 21.2 °F 69% 30.31 in 10.0 mi WNW 6.9 mph - N/A   Unknown
4:36 PM 30.2 °F 25.4 °F 19.4 °F 64% 30.31 in 10.0 mi WNW 4.6 mph - N/A   Unknown
4:56 PM 30.2 °F 23.4 °F 21.2 °F 69% 30.31 in 10.0 mi West 6.9 mph - N/A   Unknown
5:16 PM 30.2 °F 21.9 °F 19.4 °F 64% 30.31 in 10.0 mi West 9.2 mph - N/A   Unknown
5:36 PM 30.2 °F 22.6 °F 19.4 °F 64% 30.31 in 10.0 mi West 8.1 mph - N/A   Unknown
5:56 PM 28.4 °F 20.4 °F 19.4 °F 69% 30.31 in 10.0 mi West 8.1 mph - N/A   Unknown
6:16 PM 28.4 °F 21.2 °F 19.4 °F 69% 30.30 in 10.0 mi West 6.9 mph - N/A   Unknown
6:36 PM 28.4 °F 20.4 °F 19.4 °F 69% 30.30 in 10.0 mi West 8.1 mph - N/A   Unknown
6:56 PM 28.4 °F 21.2 °F 21.2 °F 74% 30.30 in 10.0 mi West 6.9 mph - N/A   Unknown
7:16 PM 28.4 °F - 21.2 °F 74% 30.31 in 10.0 mi Calm Calm - N/A   Unknown
7:36 PM 28.4 °F 24.6 °F 21.2 °F 74% 30.31 in 10.0 mi WNW 3.5 mph - N/A   Unknown
7:56 PM 28.4 °F - 21.2 °F 74% 30.31 in 10.0 mi Calm Calm - N/A   Unknown
8:16 PM 28.4 °F - 19.4 °F 69% 30.31 in 10.0 mi Calm Calm - N/A   Unknown
8:36 PM 26.6 °F - 19.4 °F 74% 30.30 in 10.0 mi Calm Calm - N/A   Unknown
8:56 PM 28.4 °F - 21.2 °F 74% 30.31 in 10.0 mi Calm Calm - N/A   Unknown
9:16 PM 28.4 °F - 21.2 °F 74% 30.30 in 10.0 mi Calm Calm - N/A   Unknown
9:36 PM 28.4 °F - 21.2 °F 74% 30.30 in 10.0 mi Calm Calm - N/A   Unknown
9:56 PM 28.4 °F - 21.2 °F 74% 30.30 in 10.0 mi Calm Calm - N/A   Unknown
10:16 PM 28.4 °F - 21.2 °F 74% 30.30 in 10.0 mi Calm Calm - N/A   Unknown
10:36 PM 28.4 °F - 21.2 °F 74% 30.29 in 10.0 mi Calm Calm - N/A   Unknown
10:56 PM 28.4 °F - 21.2 °F 74% 30.28 in 10.0 mi Calm Calm - N/A   Unknown
11:16 PM 28.4 °F - 23.0 °F 80% 30.27 in 10.0 mi Calm Calm - N/A   Unknown
11:36 PM 28.4 °F - 23.0 °F 80% 30.26 in 10.0 mi Calm Calm - N/A   Unknown
11:56 PM 30.2 °F 20.8 °F 23.0 °F 75% 30.25 in 10.0 mi SE 11.5 mph - N/A   Unknown